Weather in Yuzhny

Russia / Republic of Kalmykia     46°17′31″N   44°15′12″E
temp.,
°C
wind,
m/s
gust,
m/s
humid.,
%
clouds,
%
prec.,
mm/h
press.,
hPa
HPBL,
m
10 may, mon
mon1023:00+8wnw91385100 0.7 1017965
02:00+7w91385100 0.8 1017829
05:00+7w81381100 0.0 1017784
08:00+10w10126246 0.1 10171625
11:00+12w10135197 0.2 10162170
14:00+11w1012619 0.4 10161507
17:00+9w9127290 0.2 10161366
20:00+8wsw71181100 0.4 10171047
11 may, tue
tue1123:00+8sw7117671 0.1 1016880
02:00+7ssw61081100 0.8 1017777
05:00+7s61078100 0.0 1018428
08:00+11sw61055100 0.0 10191049
11:00+15sse5841100 0.0 10192226
14:00+14se8944100 0.0 10191810
17:00+12ese496697 0.1 1019566
20:00+12e466613 0.2 1019120
12 may, wed
wed1223:00+10e2269100 0.0 101917
02:00+8e22775 0.0 101810
05:00+11e22715 0.0 101861
08:00+15e33545 0.0 10181067
11:00+18e34445 0.0 10181504
14:00+20e33390 0.0 10171708
17:00+20e34470 0.0 1017202
20:00+15ene22570 0.0 101611
13 may, thu
thu1323:00+15ne335588 0.0 101616
02:00+14ne33589 0.0 101618
05:00+15ene35630 0.0 1016103
08:00+21e56510 0.0 1016688
11:00+24e56460 0.0 10151329
14:00+26e5642100 0.0 10151463
17:00+24e46515 0.0 1015232
20:00+20e34555 0.0 101530
14 may, fri
fri1423:00+17se336644 0.0 101543
02:00+15ese337633 0.0 101541
05:00+16ese36803 0.0 1016156
08:00+22ese56530 0.0 1015550
11:00+27se77435 0.0 10151023
14:00+29se79325 0.0 10141393
17:00+26se7123876 0.0 1014401
20:00+21ese6154697 0.0 1015339